Regional Weather Roundup
Issued by NWS

Home | Current Version | Previous Version | Graphics & Text | Print | Product List | Glossary On
Versions: 1 2 3 4 5 6 7 8 9 10 11 12 13 14 15 16 17 18 19 20 21 22 23 24 25 26 27 28 29 30 31 32 33 34 35 36 37 38 39 40 41 42 43 44 45 46 47 48 49 50
000
ASUS43 KMKX 282200
RWRWI

WISCONSIN REGIONAL WEATHER ROUNDUP
NATIONAL WEATHER SERVICE MILWAUKEE/SULLIVAN WI
500 PM CDT MON JUL 28 2014

NOTE: "FAIR" INDICATES FEW OR NO CLOUDS BELOW 12,000 FEET WITH NO
SIGNIFICANT WEATHER AND/OR OBSTRUCTIONS TO VISIBILITY.

WIZ001-002-006>008-014>016-023>028-282300-
NORTHWEST WISCONSIN

CITY           SKY/WX    TMP DP  RH WIND       PRES   REMARKS
SUPERIOR ARPT  PTSUNNY   75  56  50 NW9       30.11F
ASHLAND        CLOUDY    71  56  58 VRB7      30.10F
HAYWARD        SUNNY     74  51  44 NW9       30.13F
SIREN          PTSUNNY   74  50  43 N7        30.15S
RICE LAKE      SUNNY     73  51  46 W9        30.16S
LADYSMITH      MOSUNNY   73  49  43 NW12      30.14F
EAU CLAIRE     NOT AVBL
MENOMONIE      CLEAR     74  48  39 NW9       30.14F
NEW RICHMOND   MOSUNNY   72  50  45 NW6       30.16S
OSCEOLA        MOSUNNY   72  52  49 NW5       30.18S
$$

WIZ003>005-009-010-017-018-282300-
NORTH CENTRAL WISCONSIN

CITY           SKY/WX    TMP DP  RH WIND       PRES   REMARKS
WOODRUFF       SUNNY     72  51  48 NW8       30.11S
RHINELANDER    CLOUDY    67  51  56 NW7       30.11S
EAGLE RIVER    MOSUNNY   69  47  45 NW12      30.10S
LAND O LAKES   MOSUNNY   69  49  47 NW10G17   30.10S
PHILLIPS       CLOUDY    68  53  58 NW7       30.12S
TOMAHAWK       CLOUDY    67  52  57 CALM      30.12S
MEDFORD        CLOUDY    69  53  57 NW10      30.12S
MERRILL        CLOUDY    69  51  54 N9        30.10S
$$

WIZ029-030-035-036-043>047-282300-
CENTRAL WISCONSIN

CITY           SKY/WX    TMP DP  RH WIND       PRES   REMARKS
WAUSAU         CLOUDY    71  50  47 NW13      30.08S
MOSINEE        PTSUNNY   70  52  52 NW10G21   30.11S
MARSHFIELD     MOSUNNY   73  52  47 NW14G23   30.11S
STEVENS POINT  PTSUNNY   72  50  45 NW8G16    30.09F
WAUPACA        MOSUNNY   77  47  35 NW13      30.07F
WAUTOMA        NOT AVBL
WISC RAPIDS    MOSUNNY   74  52  46 NW13      30.11S
CAMP DOUGLAS   NOT AVBL
$$

WIZ011>013-019>022-031-037>040-048>050-282300-
NORTHEAST WISCONSIN

CITY           SKY/WX    TMP DP  RH WIND       PRES   REMARKS
ANTIGO         CLOUDY    66  52  60 N8        30.10S
STURGEON BAY   CLOUDY    64  48  55 S6        30.06S
GREEN BAY      CLOUDY    72  54  53 N8        30.05S
MANITOWOC      NOT AVBL
APPLETON       PTSUNNY   73  46  38 NW9G16    30.06F
CLINTONVILLE   CLOUDY    72  46  40 N8        30.06S
OSHKOSH        CLOUDY    74  52  46 N8        30.05F
$$

WIZ032>034-041-042-053>061-282300-
SOUTHWEST WISCONSIN

CITY           SKY/WX    TMP DP  RH WIND       PRES   REMARKS
LA CROSSE      SUNNY     76  49  38 NW9       30.12F
SPARTA         SUNNY     74  45  35 NW10      30.13F
VIROQUA        CLOUDY    69  51  51 NW7       30.15S
BOSCOBEL       PTSUNNY   76  51  41 NW10      30.13F
PRAIRIE DU CHI MOSUNNY   73  44  35 NW9       30.14S
PLATTEVILLE    CLOUDY    71  49  45 NW8       30.15S
$$

WIZ056-057-062-063-064-067-068-282300-
SOUTH CENTRAL WISCONSIN

CITY           SKY/WX    TMP DP  RH WIND       PRES   REMARKS
BARABOO/DELLS  MOSUNNY   73  46  38 NW13      30.10F
LONE ROCK      NOT AVBL
WATERTOWN      MOSUNNY   72  53  50 NW10      30.08F
MADISON        PTSUNNY   73  51  46 NW9G20    30.10S
MIDDLETON      FAIR      74  47  38 NW18G24   30.11S
MONROE         CLOUDY    72  50  46 N7        30.12S
JANESVILLE     PTSUNNY   75  46  35 NW12      30.10S
$$

WIZ051-052-058>065-066-070>072-282300-
SOUTHEAST WISCONSIN

CITY           SKY/WX    TMP DP  RH WIND       PRES   REMARKS
MILWAUKEE      PTSUNNY   64  50  60 E7        30.09S
WAUKESHA       PTSUNNY   70  48  46 NW10      30.09F
MILWAUKEE/TIMM PTSUNNY   68  48  49 E5        30.08F
RACINE         SUNNY     65  50  58 NE7       30.10F
BURLINGTON     MOSUNNY   70  48  45 N9G16     30.09S
KENOSHA        MOSUNNY   69  52  54 NE7       30.09S
FOND DU LAC    PTSUNNY   72  50  45 NW8       30.06F
SHEBOYGAN      MOSUNNY   66  50  56 E6        30.07F
WEST BEND      PTSUNNY   68  50  52 N6        30.07F
JUNEAU         PTSUNNY   70  46  42 W7        30.09S
$$

LSZ147-162-282300-
LAKE SUPERIOR

STATION/POSITION TIME  TEMP    WIND        PRES    WAVE
                       AIR SEA DIR/SP/G            HT/PER
                 (UTC) (F)     (DEG/KT/KT) (MB)    (FT/S)
W MID LAKE BUOY  2050   50 44  250/ 10/ 10 1017.9F   1
PORT WING        2100   69     250/  7/ 10 1019.6F
SAXON HARBOR     2100             CALM     1019.3F
$$

LMZ867-665-643>646-282300-
LAKE MICHIGAN

STATION/POSITION TIME  TEMP    WIND        PRES    WAVE
                       AIR SEA DIR/SP/G            HT/PER
                 (UTC) (F)     (DEG/KT/KT) (MB)    (FT/S)
N MID LAKE BUOY  2050   55 55  200/  8/  8 1016.5F   1
NORTHPORT PIER   2100   66     320/  5/  7 1016.9F
KEWAUNEE LAKESHO 2100   55     180/  6/  7 1018.8F
SHEBOYGAN LAKESH 2100   58      90/  3/  3 1018.9F
PORT WASHINGTON  2140   62     100/  2/  3 1019.0F
ATWATER BUOY     2100   61      30/  6     1019.9S
MILWAUKEE LAKESH 2100   60      50/  9/ 10   N/A
S MID LAKE BUOY  2050   58 60  340/ 21/ 25 1018.0F   7/ 7
KENOSHA   LAKESH 2100   60      30/ 12/ 15 1018.6S
$$

TC  - TEMPERATURE IN CELSIUS
VSB - VISIBILITY IN STATUTE MILES
WCI - WIND CHILL INDEX
HX  - HEAT INDEX




USA.gov is the U.S. government's official web portal to all federal, state and local government web resources and services.